Location: Shell Point
(30.0571°N, 84.2896°W)
Time: 10:09:16
(UTC-04:00)

Meteor 2-19 Rocket - Visible Passes

Search period start: 19 April 2015 00:00
Search period end: 29 April 2015 00:00
Orbit: 936 x 959 km, 82.5° (Epoch: 19 April)

Date Brightness Start Highest point End Pass type
(mag) Time Alt. Az. Time Alt. Az. Time Alt. Az.
19 Apr 7.4 05:10:37 10° E 05:11:57 11° E 05:13:47 10° ENE visible
20 Apr 6.9 05:24:40 10° SE 05:28:46 20° E 05:33:08 10° NE visible
21 Apr 6.1 05:40:21 10° SSE 05:45:38 34° E 05:51:03 10° NNE visible
22 Apr 5.1 05:56:40 10° S 06:02:32 58° E 06:08:29 10° NNE visible
23 Apr 4.4 06:13:27 10° S 06:19:30 85° W 06:25:35 10° N visible
24 Apr 7.0 04:48:38 10° ESE 04:52:06 17° E 04:55:54 10° NE visible
24 Apr 4.6 06:30:42 10° SSW 06:36:33 51° W 06:42:25 10° N visible
25 Apr 6.3 05:03:59 10° SE 05:08:57 28° E 05:14:04 10° NNE visible
26 Apr 5.3 05:20:07 10° SSE 05:25:50 48° E 05:31:39 10° NNE visible
27 Apr 4.5 05:36:45 10° S 05:42:46 81° E 05:48:52 10° N visible
28 Apr 7.0 04:12:51 10° ESE 04:15:26 13° E 04:18:26 10° NE visible
28 Apr 4.5 05:53:50 10° SSW 05:59:47 61° W 06:05:48 10° N visible
